Abu Dhabi, UAE

9:21 AM GST on January 23, 2017 (GMT +0400)
Abu Dhabi

Weather History for 41217 - November, 2013

Change the Weather History Date:

Thursday, November 7, 2013

  Actual Average Record
Temperature  
Mean Temperature 80 °F -  
Max Temperature 89 °F 84 °F - ()
Min Temperature 70 °F 63 °F - ()
Cooling Degree Days 14    
Growing Degree Days 30 (Base 50)    
Moisture  
Dew Point 59 °F    
Average Humidity 48    
Maximum Humidity 69    
Minimum Humidity 17    
Precipitation  
Precipitation 0.00 in 0.00 in - ()
Sea Level Pressure  
Sea Level Pressure 29.95 in    
Wind  
Wind Speed 6 mph ()    
Max Wind Speed 17 mph    
Max Gust Speed 26 mph    
Visibility 5.4 miles    
Events      
T = Trace of Precipitation, MM = Missing Value Source: Averaged Metar Reports

Daily Weather History Graph

Daily Weather History Graph

Search for Another Location

Airport or City:

Trip Planner

Search our weather history database for the weather conditions in past years. The results will help you decide how hot, cold, wet, or windy it might be!

Date:

Astronomy

Nov. 07, 2013 Rise Set
Actual Time 6:31 AM GST 5:38 PM GST
Civil Twilight 6:08 AM GST 6:01 PM GST
Nautical Twilight 5:40 AM GST 6:28 PM GST
Astronomical Twilight 5:13 AM GST 6:55 PM GST
Moon 10:12 AM GST (11/7) 9:27 PM GST (11/7)
Length of Visible Light 11h 53m
Length of Day
11h 06m
Waxing Crescent, 19% of the Moon is Illuminated
Nov 7
Waxing Crescent
Nov 10
First Quarter
Nov 17
Full
Nov 25
Last Quarter
Dec 3
New

Hourly Weather History & Observations

Time (GST) Temp. Heat Index Dew Point Humidity Pressure Visibility Wind Dir Wind Speed Gust Speed Precip Events Conditions
12:00 AM 78.8 °F - 64.4 °F 61% 29.95 in - NE 2.3 mph - N/A   Clear
1:00 AM 77 °F - 62 °F 49% 29.96 in 6 mi NE 4.6 mph - -  
1:00 AM 77.0 °F - 60.8 °F 57% 29.95 in - NE 4.6 mph - N/A   Clear
2:00 AM 75.2 °F - 60.8 °F 61% 29.95 in - NNE 8.1 mph - N/A   Clear
3:00 AM 73.4 °F - 62.6 °F 69% 29.92 in - North 4.6 mph - N/A   Clear
4:00 AM 73 °F - 60 °F 54% 29.95 in 6 mi NNE 2.3 mph - -  
4:00 AM 73.4 °F - 59.0 °F 61% 29.95 in - NNE 2.3 mph - N/A   Clear
5:00 AM 71.6 °F - 59.0 °F 64% 29.95 in - NE 2.3 mph - N/A   Clear
6:00 AM 71.6 °F - 59.0 °F 64% 29.95 in - NE 3.5 mph - N/A   Clear
7:00 AM 72 °F - 59 °F 54% 29.98 in 6 mi East 2.3 mph - -  
7:00 AM 71.6 °F - 59.0 °F 64% 29.98 in - East 2.3 mph - N/A   Clear
8:00 AM 73.4 °F - 59.0 °F 61% 29.98 in - East 3.5 mph - N/A   Clear
9:00 AM 78.8 °F - 57.2 °F 47% 30.01 in - East 4.6 mph - N/A   Clear
10:00 AM 83 °F - 58 °F 33% 30.01 in 6 mi ENE 6.9 mph - -  
10:00 AM 82.4 °F 82.5 °F 59.0 °F 45% 30.01 in - ENE 6.9 mph - N/A   Clear
11:00 AM 86.0 °F 84.9 °F 57.2 °F 37% 30.01 in - NE 10.4 mph 26.5 mph N/A   Clear
12:00 PM 86.0 °F - 51.8 °F 31% 29.98 in - NNE 9.2 mph - N/A   Clear
1:00 PM 88 °F - 50 °F 17% 29.94 in 6 mi NNE 9.2 mph - -  
1:00 PM 87.8 °F - 50.0 °F 27% 29.95 in - NNE 9.2 mph - N/A   Clear
2:00 PM 89.6 °F 88.9 °F 59.0 °F 36% 29.92 in 5.0 mi NNW 16.1 mph - N/A   Unknown
3:00 PM 87.8 °F 86.5 °F 57.2 °F 35% 29.89 in 4.3 mi NNW 17.3 mph - N/A   Unknown
4:00 PM 86 °F - 58 °F 29% 29.91 in 4 mi NNW 17.3 mph - -   Widespread Dust
4:00 PM 86.0 °F 85.4 °F 59.0 °F 40% 29.89 in 4.3 mi NNW 17.3 mph - N/A   Unknown
5:00 PM 86.0 °F 86.1 °F 60.8 °F 43% 29.92 in 5.6 mi North 15.0 mph - N/A   Unknown
6:00 PM 82.4 °F 83.4 °F 62.6 °F 51% 29.92 in - North 12.7 mph - N/A   Clear
7:00 PM 81 °F - 61 °F 40% 29.94 in 6 mi North 9.2 mph - -  
7:00 PM 80.6 °F 81.5 °F 60.8 °F 51% 29.95 in - North 9.2 mph - N/A   Clear
8:00 PM 78.8 °F - 60.8 °F 54% 29.95 in - North 8.1 mph - N/A   Clear
9:00 PM 77.0 °F - 60.8 °F 57% 29.95 in - North 8.1 mph - N/A   Clear
10:00 PM 77 °F - 60 °F 45% 29.97 in 6 mi North 6.9 mph - -  
10:00 PM 77.0 °F - 59.0 °F 54% 29.95 in - North 6.9 mph - N/A   Clear
11:00 PM 77.0 °F - 60.8 °F 57% 29.95 in - North 4.6 mph - N/A   Clear